SQ7ACP-3 Weather Reports


time (UTC)temp
F
wind
direction
speed
knots
gust
knots
rain 1hr
in
rain 24hr
in
rain mn
in
humidity
%
barometer
mb
20260508053301 47 354 0.9 0.9 0.00 0.00 0.00 94 1015.9
20260508052248 47 320 0.0 0.0 0.00 0.00 0.00 93 1015.9
20260508051236 47 359 1.7 1.7 0.00 0.00 0.00 94 1015.9
20260508050224 47 4 0.9 0.9 0.00 0.00 0.00 94 1015.9
20260508045224 47 346 0.0 0.0 0.00 0.00 0.00 93 1015.8
20260508044211 47 324 0.9 0.9 0.00 0.00 0.00 92 1015.7
20260508043211 47 342 0.0 0.0 0.00 0.00 0.00 92 1015.6
20260508042158 48 354 0.0 0.0 0.00 0.00 0.00 92 1015.6
20260508041146 47 5 0.0 0.0 0.00 0.00 0.00 92 1015.5
20260508040133 48 342 0.0 0.0 0.00 0.00 0.00 92 1015.3
20260508035133 48 342 0.0 0.0 0.00 0.00 0.00 92 1015.4
20260508034133 48 353 0.0 0.0 0.00 0.00 0.00 91 1015.2
20260508033121 47 72 0.0 0.0 0.00 0.00 0.00 92 1015.0
20260508032109 48 315 0.0 0.0 0.00 0.00 0.00 92 1015.0
20260508031056 48 353 0.0 0.0 0.00 0.00 0.00 92 1015.0
20260508030043 48 18 0.0 0.0 0.00 0.00 0.00 93 1015.0
20260508025043 47 318 0.0 0.0 0.00 0.00 0.00 93 1015.0
20260508024031 48 352 0.0 0.0 0.00 0.00 0.00 92 1015.1
20260508023031 48 354 1.7 1.7 0.00 0.00 0.00 92 1015.0
20260508022018 48 258 0.0 0.0 0.00 0.00 0.00 92 1014.9
20260508021008 48 0 0.0 0.0 0.00 0.00 0.00 92 1014.9
20260508020006 48 357 0.0 0.0 0.00 0.00 0.00 91 1014.9
20260508014954 48 324 0.9 0.9 0.00 0.00 0.00 91 1014.9
20260508012944 49 0 0.0 0.0 0.00 0.00 0.00 90 1014.9
20260508011928 49 30 0.9 0.9 0.00 0.00 0.00 89 1014.9
20260508010929 49 353 0.0 0.0 0.00 0.00 0.00 89 1014.9
20260508005916 49 353 0.0 0.0 0.00 0.00 0.00 88 1014.8
20260508004904 50 288 0.0 0.0 0.00 0.00 0.00 88 1014.7
20260508003904 50 342 0.0 0.0 0.00 0.00 0.00 88 1014.6
20260508002851 50 314 0.0 0.0 0.00 0.00 0.00 87 1014.6
20260508001840 50 357 0.0 0.0 0.00 0.00 0.00 87 1014.7
20260508000839 50 352 0.0 0.0 0.00 0.00 0.00 87 1014.6
20260507235826 50 300 0.0 0.0 0.00 0.00 0.00 88 1014.5
20260507234813 50 348 0.0 0.0 0.00 0.00 0.00 87 1014.5
20260507233801 50 6 0.0 0.0 0.00 0.00 0.00 88 1014.5
20260507232749 50 347 0.0 0.0 0.00 0.00 0.00 88 1014.5
20260507231748 51 78 0.0 0.0 0.00 0.00 0.00 87 1014.5
20260507230736 51 359 0.0 0.0 0.00 0.00 0.00 87 1014.5
20260507225736 51 0 0.0 0.0 0.00 0.00 0.00 87 1014.5
20260507224723 51 300 0.0 0.0 0.00 0.00 0.00 86 1014.6
20260507223723 51 354 0.9 0.9 0.00 0.00 0.00 86 1014.5
20260507222711 51 342 0.0 0.0 0.00 0.00 0.00 86 1014.5
20260507221711 51 348 0.0 0.0 0.00 0.00 0.00 86 1014.5
20260507220659 51 318 0.0 0.0 0.00 0.00 0.00 86 1014.3
20260507215658 51 354 0.0 0.0 0.00 0.00 0.00 86 1014.3
20260507214659 51 348 0.0 0.0 0.00 0.00 0.00 86 1014.3
20260507213658 51 0 0.0 0.0 0.00 0.00 0.00 87 1014.4
20260507212659 51 354 0.9 0.9 0.00 0.00 0.00 87 1014.3
20260507211646 51 276 0.0 0.0 0.00 0.00 0.00 87 1014.2
20260507210633 52 12 0.0 0.0 0.00 0.00 0.00 87 1014.1
20260507205634 52 358 0.0 0.0 0.00 0.00 0.00 86 1014.0
20260507204633 52 300 0.0 0.0 0.00 0.00 0.00 86 1013.9
20260507203622 52 0 0.9 0.9 0.00 0.00 0.00 87 1013.9
20260507202611 52 347 0.0 0.0 0.00 0.00 0.00 86 1013.9
20260507201556 53 347 0.0 0.0 0.00 0.00 0.00 87 1013.8
20260507200549 53 346 0.0 0.0 0.00 0.00 0.00 87 1013.8
20260507195534 53 352 0.0 0.0 0.00 0.00 0.00 87 1013.7
20260507194531 53 342 0.0 0.0 0.00 0.00 0.00 87 1013.6
20260507193518 53 294 0.0 0.0 0.00 0.00 0.00 88 1013.7
20260507192507 53 348 0.0 0.0 0.00 0.00 0.00 87 1013.7
20260507191456 53 10 0.0 0.0 0.00 0.00 0.00 88 1013.4
20260507190453 53 0 0.0 0.0 0.00 0.00 0.00 88 1013.1
20260507184441 54 359 0.9 0.9 0.00 0.00 0.00 87 1012.7
20260507183431 54 0 0.9 0.9 0.00 0.00 0.00 88 1012.5
20260507182428 54 6 1.7 1.7 0.00 0.00 0.00 88 1012.5
20260507180421 54 348 0.0 0.0 0.00 0.00 0.00 88 1012.0
20260507175416 55 336 1.7 1.7 0.00 0.00 0.00 88 1012.1
20260507174403 55 296 0.0 0.0 0.00 0.00 0.00 88 1012.1
20260507173403 56 342 0.0 0.0 0.00 0.00 0.00 86 1012.1
20260507172359 56 342 0.0 0.0 0.00 0.00 0.00 84 1012.2
20260507171351 56 18 0.9 0.9 0.00 0.00 0.00 84 1012.1
20260507170350 57 12 1.7 1.7 0.00 0.00 0.00 83 1012.1
20260507165341 57 348 0.0 0.0 0.00 0.00 0.00 83 1012.0
20260507164338 57 342 0.0 0.0 0.00 0.00 0.00 82 1011.7
20260507163325 58 348 0.0 0.0 0.00 0.00 0.00 81 1011.5
20260507162326 58 330 0.0 0.0 0.00 0.00 0.00 82 1011.3
20260507161313 59 352 0.0 0.0 0.00 0.00 0.00 81 1011.3
20260507160313 59 352 1.7 1.7 0.00 0.00 0.00 79 1011.3
20260507155309 60 351 0.0 0.0 0.00 0.00 0.00 79 1011.1
20260507154300 61 246 0.0 0.0 0.00 0.00 0.00 77 1011.2
20260507153250 60 235 0.0 0.0 0.00 0.00 0.00 77 1011.2
20260507152238 61 72 0.9 0.9 0.00 0.00 0.00 77 1011.4
20260507151223 62 350 1.7 1.7 0.00 0.00 0.00 76 1010.4
20260507150218 62 294 0.0 0.0 0.00 0.00 0.00 74 1010.9
20260507145212 63 318 0.0 0.0 0.00 0.00 0.00 73 1011.0
20260507144201 63 6 0.0 0.0 0.00 0.00 0.00 73 1010.7
20260507143158 63 60 0.9 0.9 0.00 0.00 0.00 70 1011.0
20260507141157 63 358 0.0 0.0 0.00 0.00 0.00 71 1010.9
20260507140151 63 328 0.0 0.0 0.00 0.00 0.00 73 1010.9
20260507135145 63 4 0.9 0.9 0.00 0.00 0.00 72 1010.9
20260507134145 64 342 0.0 0.0 0.00 0.00 0.00 70 1010.9
20260507133132 64 295 0.0 0.0 0.00 0.00 0.00 70 1011.0
20260507132123 63 355 0.0 0.0 0.00 0.00 0.00 71 1010.7
20260507131119 62 329 0.0 0.0 0.00 0.00 0.00 73 1010.8
20260507130107 62 317 0.0 0.0 0.00 0.00 0.00 75 1010.8
20260507125107 62 348 0.9 0.9 0.00 0.00 0.00 76 1011.0
20260507124054 62 158 0.9 0.9 0.00 0.00 0.00 75 1011.0
20260507123042 63 191 0.0 0.0 0.00 0.00 0.00 73 1011.0
20260507122029 62 341 0.0 0.0 0.00 0.00 0.00 75 1011.0
20260507121017 61 336 0.0 0.0 0.00 0.00 0.00 77 1011.1
20260507120005 62 203 0.0 0.0 0.00 0.00 0.00 75 1011.1
20260507115004 60 304 0.0 0.0 0.00 0.00 0.00 78 1011.1
20260507113955 59 5 0.9 0.9 0.00 0.00 0.00 79 1011.1
20260507112942 58 358 0.9 0.9 0.00 0.00 0.00 83 1011.3
20260507111939 57 342 0.0 0.0 0.00 0.00 0.00 85 1011.3
20260507110939 57 359 0.0 0.0 0.00 0.00 0.00 85 1011.2
20260507105927 58 358 0.0 0.0 0.00 0.00 0.00 83 1011.1
20260507104926 58 24 2.6 2.6 0.00 0.00 0.00 84 1011.0
20260507103927 58 309 0.0 0.0 0.00 0.00 0.00 84 1010.8
20260507102914 57 342 0.0 0.0 0.00 0.00 0.00 85 1010.7
20260507101914 57 342 0.0 0.0 0.00 0.00 0.00 85 1010.5
20260507100902 56 342 0.0 0.0 0.00 0.00 0.00 87 1010.4
20260507095852 56 346 0.0 0.0 0.00 0.00 0.00 88 1010.3
20260507094837 56 352 0.0 0.0 0.00 0.00 0.00 90 1010.2
20260507093825 56 352 0.0 0.0 0.00 0.00 0.00 90 1010.2
20260507092824 56 312 0.0 0.0 0.00 0.00 0.00 91 1010.0
20260507091815 56 330 0.0 0.0 0.00 0.00 0.00 91 1009.8
20260507090802 57 352 0.0 0.0 0.00 0.00 0.00 90 1009.7
20260507085749 57 312 0.0 0.0 0.00 0.00 0.00 90 1009.6
20260507084734 57 6 1.7 1.7 0.00 0.00 0.00 89 1009.4
20260507083734 57 354 0.9 0.9 0.00 0.00 0.00 88 1009.2
20260507082722 58 300 0.0 0.0 0.00 0.00 0.00 88 1008.9
20260507081711 58 351 0.0 0.0 0.00 0.00 0.00 89 1008.8
20260507080709 58 348 1.7 1.7 0.00 0.00 0.00 88 1008.7
20260507075701 58 18 0.9 0.9 0.00 0.00 0.00 88 1008.6
20260507074657 58 324 0.9 0.9 0.00 0.00 0.00 89 1008.4
20260507073644 58 346 0.0 0.0 0.00 0.00 0.00 89 1008.3
20260507072644 59 36 0.9 0.9 0.00 0.00 0.00 89 1008.2
20260507071631 59 348 0.0 0.0 0.00 0.00 0.00 89 1007.9
20260507070619 59 313 0.0 0.0 0.00 0.00 0.00 89 1008.0
20260507065610 60 0 1.7 1.7 0.00 0.00 0.00 89 1007.8
20260507064603 59 294 0.0 0.0 0.00 0.00 0.00 91 1007.7
20260507063555 58 345 0.9 0.9 0.00 0.00 0.00 92 1007.6
20260507062554 59 60 0.0 0.0 0.00 0.00 0.00 89 1007.5
20260507061554 59 354 0.0 0.0 0.00 0.00 0.00 86 1007.5
20260507060542 59 346 0.0 0.0 0.00 0.00 0.00 85 1007.3
20260507055529 59 342 0.9 0.9 0.00 0.00 0.00 87 1007.2
20260507054529 59 348 0.0 0.0 0.00 0.00 0.00 87 1007.2